COSMOS 1088

Satellite information

Favourite Embed

Satellite Type and Status

PAYLOADIN ORBIT

Key statistics

Satellite COSMOS 1088 at a glance.

Uptime

17035

Days in orbit

Revolutions

≈ 12.4

Per day

Orbit

LEO

Low Earth Orbit

Inclination

74.0

Latest

Satellite identification and parameters

Extended collection of information and parameters for COSMOS 1088.

Object identification

Identified? True

Debris? False

Object name: COSMOS 1088

International designator: 1979-024H

Object number (NORAD): 11303

Object ID (CCSDS): 11303

Country: COMMONWEALTH OF INDEPENDENT STATES (CIS)

Current information (Y/N): Y

RCS size: MEDIUM

Orbital parameters

Period: 116.114 minutes

Inclination: 74.0343 deg

SMA: 7884.074 km

Apoapsis: 1547.194 km

Periapsis: 1464.684 km

RAAN: 330.8683 deg

Eccentricy: 0.0052327

Argument of periapsis: 326.9536 deg

Mean anomaly: 185.4674 deg

Mean motion: 12.4015724 rev/day

Mean motion (dot): 0.00000007 rev/day2

B* drag term: 0.00017132 1/REarth

Two-line elements (TLE)

Creation date: Nov. 2, 2025, 3:46 p.m.

Reference frame: TEME

Reference center: EARTH

Epoch: Nov. 2, 2025, 11:39 a.m. UTC

TLE line 0: 0 COSMOS 1088

TLE line 1: 1 11303U 79024H 25306.48580300 .00000007 00000-0 17132-3 0 9998

TLE line 2: 2 11303 74.0343 330.8683 0052327 326.9536 185.4674 12.40157240111379

Live tracking on map

Real-time ground track for satellite COSMOS 1088.

In-orbit conjunctions

A list of the most updated potential collisions computed for object COSMOS 1088.

Target Orbit TCA Probability of collision Miss distance Type
COSMOS 1823 DEB LEO 2025-02-18 20:17:10 0.0008748569 162.0 (m) DEBRIS
DELTA 1 DEB SSO 2024-07-02 05:16:21 0.0001632309 709.0 (m) DEBRIS

Associated space launch

Military communications satellites

COSMOS 1088 was lifted into orbit during the mission ‘Kosmos-3M | Strela-1M 169-176’, on board a Kosmos-3M space rocket.

The launch took place on March 15, 1979, 2:58 a.m. from 132/2.

For more information about the launch, click the button.

Launch to space Kosmos-3M | Strela-1M 169-176
Kosmos-3M | Strela-1M 169-176

Agency: N/A

Status: Launch Successful

Launch date: March 15, 1979, 2:58 a.m. UTC

Rocket: Kosmos-3M

Launch pad: 132/2

Location: Plesetsk Cosmodrome, Russian Federation

...

Latest news about this satellite

There are no fresh news available about this satellite. Check back as we update our databases every day.


Newsletter sign-up

Weekly statistics, charts and insights to help you stay on top of the space industry.